STARLINK-36620

Last updated on Thu Mar 05 2026 00:02:08 GMT+0000 (Coordinated Universal Time)

1 67654U 26022G 26063.06553955 .00452662 00000+0 28524-2 0 9992 2 67654 97.2821 96.7641 0001471 156.9941 203.1390 15.75394622 4668
UTC large
Height (km)
Speed (km/s)
/
Latitude / Longitude
Inclination (degrees)
Orbital Period (minutes)
Azimuth
Elevation
Range (km)
Doppler Factor

Next 0 passes for location: London (51.5072 / 0.1276)

Sorry there are no passes over London.